STARLINK-5388, 54844

Orbit data source: Space-Track

STARLINK-5388, 54844 is a payload satellite owned by SpaceX/Seattle (US) in LEO that was launched on Wed, 28 Dec 2022 UTC via an FALCON 9 launch vehicle from the Air Force Eastern Test Range (AFETR). Payload-class satellites include a variety of spacecraft equipped with specific instruments for various scientific and technological missions. These include communications satellites like Starlink; space stations such as the ISS; scientific satellites like the Hubble; Earth observation satellites from companies like Planet Labs, Umbra, and HawkEye 360; GPS; miniature CubeSats for education and research; and military/defense satellites.

Loading next visibility...
Identifier
54844, 2022-177AA
Orbit
LEO
Country
Flag of USUS
Related business
Manufacturer
SpaceX/Seattle
Mission
Operational Commercial Communications
Bus & Motor
STARLINK, Unknown motor
Mass
305 kg wet, ~290 kg dry
Launch date (UTC)
2022-12-28 (3 years ago)
Launch vehicle
FALCON 9
Launch site
Air Force Eastern Test Range (AFETR)
Object type
Payload
Rocket body
Debris
Shape & HBR
Box + 1 Pan, 10.1 m
Radar Cross Section
13.562 m², Large (>1 m²)

Expand to show TLE details & history
Last TLE update: 2 days ago

TLE from 2 days ago
0 STARLINK-5388
1 54844U 22177AA  26171.32490338 -.00000939  00000-0 -24612-4 0  9995
2 54844  42.9989 276.1023 0000943 282.2762  77.7984 15.27569858192622
Epoch: 2026-06-20T07:47Z
TLE epoch observation values (Epoch: 2026-06-20T07:47:51.652Z)
Latitude
Longitude
-109.40407°
Altitude
482.718 km
Speed
7.626 km/s
True Right ascension
18h 24m 24s
True Declination
0° 00' 00"
Sunlit
Object was in full shadow at epoch
Visualization orbit readout
Latitude
Unknown
Longitude
Unknown
Altitude
Unknown
Speed
Unknown
Apparent Right ascension
Unknown
Apparent Declination
Unknown
Sunlit
N/A
Visualization observer readout
Local Sidereal Time
23:18:57
Azimuth
Unknown
Elevation
Unknown
Doppler factor
Unknown
Orbital elements
Apogee altitude
485.672 km
Perigee altitude
484.378 km
Semi-major axis
6,863.162 km
Eccentricity
0.00009
Inclination
42.9989°
RAAN
276.1023°
Arg. of periapsis
282.2762°
True anomaly
77.80896°
Mean anomaly
77.7984°
Eccentric anomaly
77.80368°
Mean motion
3.8173 °/min
Orbital period
94.31 mins
BSTAR
-0.000024612
Loading maneuver chart data...
Computing Atmospheric mass density...
Loading historical data...
Loading historical data...
Loading historical data...
Loading historical data...
Loading historical data...
Loading historical data...
Loading historical data...

Documentation

Showing up to 5 results
|